Weather reports worldwide

Advertisment
Capo Carbonara, Italy (16564): temperature & dewpoint: 12.10.2018 03:00:00 - 18.10.2018 03:00:00 (CEST)Capo Carbonara, Italy (16564): wind speed: 12.10.2018 03:00:00 - 18.10.2018 03:00:00 (CEST)Capo Carbonara, Italy (16564): wind direction: 12.10.2018 03:00:00 - 18.10.2018 03:00:00 (CEST)Capo Carbonara, Italy (16564): reduced air pressure: 12.10.2018 03:00:00 - 18.10.2018 03:00:00 (CEST)Capo Carbonara, Italy (16564): visibility: 12.10.2018 03:00:00 - 18.10.2018 03:00:00 (CEST)
Date & Time tt [°C] td [°C] ff [km/h] ff [kn] dd ppp [hPa] vv [km]
18.10.2018 03:00:00 20,0 19,0 54 29 ENE - 10
18.10.2018 02:00:00 19,0 15,5 46 25 NE 1008,6 10
18.10.2018 01:00:00 18,0 16,0 41 22 NE - 10
18.10.2018 00:00:00 18,0 15,0 35 19 NE - 10
17.10.2018 23:00:00 17,8 15,3 34 18 NE 1010,9 10
17.10.2018 22:00:00 18,0 15,0 37 20 ENE - 10
17.10.2018 21:00:00 18,0 15,0 24 13 ENE - 10
17.10.2018 20:00:00 18,0 15,4 18 10 NE 1011,3 4,0
17.10.2018 19:00:00 18,0 16,0 21 11 ENE - 10
17.10.2018 18:00:00 - - - - - - -
17.10.2018 17:00:00 18,2 14,2 28 15 ENE 1011,9 10
17.10.2018 16:00:00 19,0 15,0 21 11 ENE - 6
17.10.2018 15:00:00 19,0 15,0 15 8 N - 10
17.10.2018 14:00:00 19,0 15,0 5 3 NNW - 10
17.10.2018 13:00:00 21,0 17,0 28 15 SE - 6
17.10.2018 12:00:00 21,0 17,0 22 12 E - 10
17.10.2018 11:00:00 22,0 18,0 16 9 ENE 1013,1 18
17.10.2018 10:00:00 22,0 18,0 16 9 ENE - 10
17.10.2018 09:00:00 21,0 17,0 13 7 ENE - 10
17.10.2018 08:00:00 20,6 16,8 18 10 WSW 1012,7 18
17.10.2018 07:00:00 21,0 17,0 21 11 SSW - 10
17.10.2018 06:00:00 21,0 17,0 9 5 WSW - 10
17.10.2018 05:00:00 21,2 17,2 11 6 SSW 1012,9 10
17.10.2018 04:00:00 21,0 17,0 18 10 W - 10
17.10.2018 03:00:00 21,0 17,0 11 6 S - 10
17.10.2018 02:00:00 21,4 17,4 16 9 S 1013,9 12
17.10.2018 01:00:00 21,0 17,0 22 12 S - 10
17.10.2018 00:00:00 21,0 18,0 34 18 SE - 10
16.10.2018 23:00:00 21,2 17,4 26 14 E 1014,0 10
16.10.2018 22:00:00 21,0 18,0 18 10 ENE - 10
16.10.2018 21:00:00 21,0 17,0 16 9 NE - 10
16.10.2018 20:00:00 20,8 17,2 31 17 NE 1013,9 10
16.10.2018 19:00:00 21,0 17,0 24 13 ENE - 10
16.10.2018 18:00:00 21,0 17,0 18 10 ENE - 10
16.10.2018 17:00:00 22,4 18,8 28 15 ENE 1014,1 10
16.10.2018 16:00:00 23,0 20,0 24 13 ENE - 10
16.10.2018 15:00:00 23,0 20,0 26 14 ENE - 10
16.10.2018 14:00:00 23,4 19,6 22 12 ENE 1014,3 18
16.10.2018 13:00:00 22,0 19,0 26 14 ENE - 10
16.10.2018 12:00:00 22,0 19,0 26 14 ENE - 10
16.10.2018 11:00:00 22,4 18,4 18 10 ENE 1014,3 18
16.10.2018 10:00:00 20,0 16,0 18 10 NE - 10
16.10.2018 09:00:00 19,0 15,0 21 11 NE - 10
16.10.2018 08:00:00 18,8 14,9 16 9 NE 1013,7 18
16.10.2018 07:00:00 19,0 15,0 21 11 NE - 10
16.10.2018 06:00:00 19,0 15,0 22 12 NE - 10
16.10.2018 05:00:00 19,0 15,1 18 10 ENE 1013,6 10
16.10.2018 04:00:00 19,0 15,0 21 11 NE - 10
16.10.2018 03:00:00 19,0 16,0 21 11 NE - 10
16.10.2018 02:00:00 19,0 15,5 26 14 ENE 1014,1 10
16.10.2018 01:00:00 19,0 16,0 26 14 NE - 10
16.10.2018 00:00:00 20,0 16,0 22 12 NE - 10
15.10.2018 23:00:00 21,4 18,6 21 11 ENE 1014,2 10
15.10.2018 22:00:00 22,0 19,0 22 12 ENE - 10
15.10.2018 21:00:00 22,0 19,0 31 17 ENE - 10
15.10.2018 20:00:00 22,0 19,4 29 16 ENE 1013,4 20
15.10.2018 19:00:00 22,0 20,0 28 15 E - 10
15.10.2018 18:00:00 22,0 20,0 28 15 E - 10
15.10.2018 17:00:00 22,4 19,4 24 13 E 1013,1 10
15.10.2018 16:00:00 25,0 21,0 29 16 E - 10
15.10.2018 15:00:00 25,0 21,0 34 18 E - 10
15.10.2018 14:00:00 25,2 20,9 29 16 E 1012,7 20
15.10.2018 13:00:00 24,0 20,0 37 20 E - 10
15.10.2018 12:00:00 24,0 19,0 34 18 E - 10
15.10.2018 11:00:00 22,4 18,4 35 19 E 1013,3 20
15.10.2018 10:00:00 21,0 17,0 35 19 E - 10
15.10.2018 09:00:00 21,0 17,0 24 13 E - 10
15.10.2018 08:00:00 20,6 17,2 35 19 E 1012,3 20
15.10.2018 07:00:00 21,0 17,0 29 16 E - 10
15.10.2018 06:00:00 21,0 17,0 31 17 E - 10
15.10.2018 05:00:00 20,8 17,6 29 16 E 1013,0 20
15.10.2018 04:00:00 21,0 18,0 29 16 E - 10
15.10.2018 03:00:00 21,0 18,0 28 15 E - 10
15.10.2018 02:00:00 21,0 17,8 31 17 E 1013,5 20
15.10.2018 01:00:00 21,0 18,0 35 19 E - 10
15.10.2018 00:00:00 21,0 18,0 26 14 E - 10
14.10.2018 23:00:00 21,6 18,6 39 21 E 1013,8 20
14.10.2018 22:00:00 21,0 18,0 39 21 E - 10
14.10.2018 21:00:00 21,0 18,0 37 20 E - 10
14.10.2018 20:00:00 21,8 18,8 37 20 E 1013,7 20
14.10.2018 19:00:00 22,0 19,0 35 19 E - 10
14.10.2018 18:00:00 23,0 20,0 34 18 E - 10
14.10.2018 17:00:00 24,0 19,3 31 17 E 1013,6 20
14.10.2018 16:00:00 24,0 20,0 29 16 E - 10
14.10.2018 15:00:00 25,0 20,0 31 17 E - 10
14.10.2018 14:00:00 24,8 19,6 24 13 E 1015,1 20
14.10.2018 13:00:00 24,0 19,0 24 13 E - 10
14.10.2018 12:00:00 22,0 18,0 28 15 ENE - 10
14.10.2018 11:00:00 21,0 16,8 31 17 ENE 1016,3 20
14.10.2018 10:00:00 21,0 17,0 31 17 ENE - 10
14.10.2018 09:00:00 20,0 16,0 34 18 ENE - 10
14.10.2018 08:00:00 20,0 16,0 31 17 ENE 1016,4 20
14.10.2018 07:00:00 20,0 16,0 29 16 E - 10
14.10.2018 06:00:00 20,0 16,0 34 18 E - 10
14.10.2018 05:00:00 20,0 16,4 26 14 E 1017,1 18
14.10.2018 04:00:00 20,0 16,0 26 14 E - 10
14.10.2018 03:00:00 20,0 17,0 21 11 E - 10
14.10.2018 02:00:00 20,4 16,8 24 13 E 1018,2 18
14.10.2018 01:00:00 20,0 16,0 34 18 E - 10
14.10.2018 00:00:00 20,0 17,0 34 18 ENE - 10
13.10.2018 23:00:00 20,6 17,0 37 20 ENE 1018,9 18
13.10.2018 22:00:00 21,0 17,0 35 19 ENE - 10
13.10.2018 21:00:00 21,0 17,0 28 15 ENE - 10
13.10.2018 20:00:00 20,6 17,2 29 16 ENE 1019,1 18
13.10.2018 19:00:00 22,0 18,0 29 16 ENE - 10
13.10.2018 18:00:00 23,0 19,0 31 17 ENE - 10
13.10.2018 17:00:00 23,0 19,0 28 15 ENE 1019,3 18
13.10.2018 16:00:00 24,0 19,0 34 18 ENE - 10
13.10.2018 15:00:00 23,0 19,0 34 18 ENE - 10
13.10.2018 14:00:00 23,0 18,8 35 19 ENE 1019,9 18
13.10.2018 13:00:00 23,0 19,0 35 19 ENE - 10
13.10.2018 12:00:00 23,0 19,0 41 22 ENE - 10
13.10.2018 11:00:00 22,0 18,2 37 20 ENE 1020,4 25
13.10.2018 10:00:00 21,0 17,0 31 17 ENE - 10
13.10.2018 09:00:00 20,0 16,0 34 18 ENE - 10
13.10.2018 08:00:00 20,0 16,0 35 19 NE 1019,8 15
13.10.2018 07:00:00 20,0 16,0 35 19 ENE - 10
13.10.2018 06:00:00 19,0 15,0 48 26 ENE - 10
13.10.2018 05:00:00 19,0 15,1 34 18 NE 1019,9 15
13.10.2018 04:00:00 19,0 15,0 41 22 NE - 10
13.10.2018 03:00:00 20,0 16,0 55 30 ENE - 10
13.10.2018 02:00:00 20,4 16,4 46 25 NE 1020,7 15
13.10.2018 01:00:00 20,0 16,0 35 19 NNE - 10
13.10.2018 00:00:00 20,0 16,0 35 19 NNE - 10
12.10.2018 23:00:00 20,8 16,8 37 20 NE 1021,3 15
12.10.2018 22:00:00 21,0 17,0 44 24 NE - 10
12.10.2018 21:00:00 21,0 17,0 35 19 NE - 10
12.10.2018 20:00:00 21,0 17,4 31 17 NNE 1021,2 15
12.10.2018 19:00:00 21,0 18,0 18 10 NNE - 10
12.10.2018 18:00:00 22,0 19,0 29 16 NNE - 10
12.10.2018 17:00:00 23,0 18,5 29 16 NE 1020,5 18
12.10.2018 16:00:00 22,0 18,0 41 22 NE - 10
12.10.2018 15:00:00 23,0 19,0 42 23 NE - 10
12.10.2018 14:00:00 23,0 19,0 39 21 NE 1021,0 15
12.10.2018 13:00:00 24,0 19,0 35 19 NE - 10
12.10.2018 12:00:00 23,0 18,0 31 17 NE - 10
12.10.2018 11:00:00 22,6 17,5 31 17 NNE 1020,8 10
12.10.2018 10:00:00 22,0 17,0 35 19 NNE - 10
12.10.2018 09:00:00 21,0 16,0 29 16 NE - 10
12.10.2018 08:00:00 20,4 15,6 18 10 NNE 1019,4 18
12.10.2018 07:00:00 20,0 16,0 15 8 NNE - 10
12.10.2018 06:00:00 19,0 15,0 24 13 NE - 10
12.10.2018 05:00:00 19,8 15,9 24 13 NE 1018,3 10
12.10.2018 04:00:00 20,0 17,0 24 13 NE - 10
12.10.2018 03:00:00 20,0 16,0 22 12 NE - 10

tt = temperature
td = dewpoint
ff = wind speed
dd = wind direction
ppp = reduced air pressure
vv = visibility

Next stations